Change the Weather History Date:

Sunday, January 6, 2013

  Actual Average Record
Temperature  
Mean Temperature 80 °F -  
Max Temperature 82 °F 81 °F 84 °F (2014)
Min Temperature 77 °F 69 °F 42 °F (1998)
Cooling Degree Days 14    
Growing Degree Days 30 (Base 50)    
Moisture  
Dew Point 70 °F    
Average Humidity 73    
Maximum Humidity 88    
Minimum Humidity 65    
Precipitation  
Precipitation 0.03 in - - ()
Sea Level Pressure  
Sea Level Pressure 30.10 in    
Wind  
Wind Speed 11 mph (ENE)    
Max Wind Speed 14 mph    
Max Gust Speed 22 mph    
Visibility 10 miles    
Events Rain    
Averages and records for this station are not official NWS values.
T = Trace of Precipitation, MM = Missing Value Source: NWS Daily Summary

Daily Weather History Graph

Daily Weather History Graph

Search for Another Location

Airport or City:

Trip Planner

Search our weather history database for the weather conditions in past years. The results will help you decide how hot, cold, wet, or windy it might be!

Date:

Astronomy

Jan. 06, 2013 Rise Set
Actual Time 6:55 AM AST 6:01 PM AST
Civil Twilight 6:32 AM AST 6:24 PM AST
Nautical Twilight 6:05 AM AST 6:51 PM AST
Astronomical Twilight 5:38 AM AST 7:18 PM AST
Moon 1:24 AM AST (1/6) 1:10 PM AST (1/6)
Length of Visible Light 11h 52m
Length of Day
11h 05m
Waning Crescent, 34% of the Moon is Illuminated
Jan 6
Waning Crescent
Jan 11
New
Jan 18
First Quarter
Jan 27
Full
Feb 3
Last Quarter

Hourly Weather History & Observations

Time (AST) Temp. Heat Index Dew Point Humidity Pressure Visibility Wind Dir Wind Speed Gust Speed Precip Events Conditions
12:53 AM 79.0 °F - 69.1 °F 72% 30.12 in 10.0 mi East 6.9 mph - N/A   Overcast
1:53 AM 79.0 °F - 68.0 °F 69% 30.11 in 10.0 mi East 9.2 mph - N/A   Mostly Cloudy
2:53 AM 78.1 °F - 69.1 °F 74% 30.09 in 10.0 mi East 12.7 mph 17.3 mph N/A   Scattered Clouds
3:53 AM 78.1 °F - 69.1 °F 74% 30.08 in 10.0 mi ENE 11.5 mph 18.4 mph N/A   Partly Cloudy
4:53 AM 78.1 °F - 69.1 °F 74% 30.08 in 10.0 mi ENE 12.7 mph - N/A   Partly Cloudy
5:53 AM 78.1 °F - 68.0 °F 71% 30.09 in 10.0 mi ENE 11.5 mph 19.6 mph N/A   Clear
6:53 AM 78.1 °F - 70.0 °F 76% 30.11 in 10.0 mi ENE 13.8 mph 20.7 mph N/A   Mostly Cloudy
7:53 AM 79.0 °F - 69.1 °F 72% 30.13 in 10.0 mi ENE 13.8 mph 20.7 mph N/A   Scattered Clouds
8:53 AM 81.0 °F 84.4 °F 70.0 °F 69% 30.14 in 10.0 mi ENE 13.8 mph 20.7 mph N/A   Clear
9:53 AM 81.0 °F 84.4 °F 70.0 °F 69% 30.14 in 10.0 mi ENE 11.5 mph 20.7 mph N/A   Mostly Cloudy
10:53 AM 82.9 °F 87.5 °F 71.1 °F 67% 30.14 in 10.0 mi ENE 12.7 mph 21.9 mph N/A   Partly Cloudy
11:53 AM 82.9 °F 87.0 °F 70.0 °F 65% 30.12 in 10.0 mi East 13.8 mph 20.7 mph N/A   Mostly Cloudy
12:53 PM 82.0 °F 86.3 °F 71.1 °F 69% 30.09 in 10.0 mi ENE 12.7 mph - N/A   Overcast
1:53 PM 82.9 °F 87.5 °F 71.1 °F 67% 30.08 in 10.0 mi ENE 12.7 mph 19.6 mph 0.00 in   Overcast
2:53 PM 82.0 °F 86.3 °F 71.1 °F 69% 30.06 in 10.0 mi East 12.7 mph 19.6 mph N/A   Overcast
3:53 PM 81.0 °F 84.9 °F 71.1 °F 72% 30.06 in 10.0 mi ENE 12.7 mph 20.7 mph N/A   Mostly Cloudy
4:53 PM 81.0 °F 84.9 °F 71.1 °F 72% 30.07 in 10.0 mi East 10.4 mph 17.3 mph N/A   Overcast
5:14 PM 80.6 °F 84.6 °F 71.6 °F 74% 30.07 in 10.0 mi East 8.1 mph - N/A   Overcast
5:53 PM 78.1 °F - 72.0 °F 81% 30.07 in 4.0 mi ENE 12.7 mph 18.4 mph 0.01 in Rain Light Rain
6:53 PM 77.0 °F - 73.0 °F 88% 30.09 in 10.0 mi ENE 8.1 mph - 0.02 in   Overcast
7:53 PM 78.1 °F - 71.1 °F 79% 30.09 in 10.0 mi ENE 11.5 mph 17.3 mph N/A   Scattered Clouds
8:53 PM 79.0 °F - 71.1 °F 77% 30.10 in 10.0 mi ENE 11.5 mph 19.6 mph N/A   Mostly Cloudy
9:53 PM 78.1 °F - 71.1 °F 79% 30.11 in 10.0 mi ENE 8.1 mph - N/A   Clear
10:53 PM 78.1 °F - 70.0 °F 76% 30.11 in 10.0 mi East 9.2 mph - N/A   Scattered Clouds
11:53 PM 78.1 °F - 70.0 °F 76% 30.10 in 10.0 mi ENE 9.2 mph - N/A   Scattered Clouds